Location: Newark
(44.6028°N, 124.0883°W)
Time: 03:14:48
(UTC+00:00)

Vanguard 1 Rocket - Pass Details

Date: 23 October 2019
Orbit: 651 x 4226 km, 34.3° (Epoch: 20 November)

Event Time Altitude Azimuth Distance (km) Brightness Sun altitude
Rises 00:47:08 0° 282° (WNW) 7,642 13.2 4.8°
Reaches altitude 10° 00:52:50 10° 274° (W) 6,970 13.3 3.9°
Maximum altitude 01:12:35 32° 222° (SW) 5,724 12.3 0.5°
Drops below altitude 10° 01:31:44 10° 169° (S) 6,659 11.8 -2.8°
Sets 01:37:10 0° 160° (SSE) 7,263 11.9 -3.7°
